Hourly Data Report for May 18, 2018

TORONTO CITY
ONTARIO
Current Station Operator: ECCC - MSC

43°40'00.000" N
79°24'00.000" W
112.50 m
6158355
71508
XTO

Download Data

Hourly Data (May 2018)
Hourly Data Report for May 18, 2018
TIME
LST
Temp Definition
°C
Dew Point Definition
°C
Rel Hum Definition
%
Precip. Amount Definition
mm

Wind Dir Definition
10's deg

Wind Spd Definition
km/h
Visibility Definition
km
Stn Press Definition
kPa
Hmdx Definition


Wind Chill Definition


Weather Definition


00:00 15.6 8.3 62 0.0 LegendMM LegendMM   101.01     LegendNANA
01:00 15.4 -1.5 31 0.0 LegendMM LegendMM   101.07     LegendNANA
02:00 14.0 -5.4 26 0.0 LegendMM LegendMM   101.11     LegendNANA
03:00 13.0 -5.3 28 0.0 LegendMM LegendMM   101.15     LegendNANA
04:00 11.7 -5.2 30 0.0 LegendMM LegendMM   101.20     LegendNANA
05:00 11.0 -5.7 31 0.0 LegendMM LegendMM   101.27     LegendNANA
06:00 10.8 -5.7 31 0.0 LegendMM LegendMM   101.33     LegendNANA
07:00 11.2 -5.7 30 0.0 LegendMM LegendMM   101.33     LegendNANA
08:00 12.4 -3.9 32 0.0 LegendMM LegendMM   101.41     LegendNANA
09:00 13.0 -4.4 29 0.0 LegendMM LegendMM   101.47     LegendNANA
10:00 13.3 -5.7 26 0.0 LegendMM LegendMM   101.50     LegendNANA
11:00 14.2 -3.9 28 0.0 LegendMM LegendMM   101.47     LegendNANA
12:00 14.7 -0.7 35 0.0 LegendMM LegendMM   101.44     LegendNANA
13:00 14.1 -2.0 33 0.0 LegendMM LegendMM   101.36     LegendNANA
14:00 13.8 -2.9 31 0.0 LegendMM LegendMM   101.28     LegendNANA
15:00 14.8 -4.4 26 0.0 LegendMM LegendMM   101.18     LegendNANA
16:00 14.8 -3.5 28 0.0 LegendMM LegendMM   101.12     LegendNANA
17:00 15.6 -4.4 25 0.0 LegendMM LegendMM   101.03     LegendNANA
18:00 14.7 -4.1 27 0.0 LegendMM LegendMM   101.03     LegendNANA
19:00 14.8 -4.0 27 0.0 LegendMM LegendMM   100.98     LegendNANA
20:00 14.1 -4.6 27 0.0 LegendMM LegendMM   100.97     LegendNANA
21:00 14.1 -3.0 30 0.0 LegendMM LegendMM   100.96     LegendNANA
22:00 13.4 -2.0 34 0.0 LegendMM LegendMM   100.95     LegendNANA
23:00 12.1 -0.2 42 0.0 LegendMM LegendMM   100.91     LegendNANA

Notes on Data Quality.

Legend

  • E = Estimated
  • M = Missing
  • NA = Not Available*
  • [empty] = Indicates an unobserved value
Date modified: